Location: Hurstbourne Priors
(51.2000°N, 1.3667°W)
Time: 10:44:21
(UTC+00:00)

SeaSat 1 - Pass Details

Date: 09 April 2020
Orbit: 745 x 746 km, 108.0° (Epoch: 24 May)

Event Time Altitude Azimuth Distance (km) Brightness Sun altitude
Rises 19:49:56 0° 28° (NNE) 3,202 5.7 -9.3°
Reaches altitude 10° 19:52:14 10° 26° (NNE) 2,275 5.0 -9.6°
Maximum altitude 19:57:07 65° 306° (NW) 821 3.0 -10.3°
Drops below altitude 10° 20:02:00 10° 225° (SW) 2,261 5.2 -11.0°
Sets 20:04:16 0° 222° (SW) 3,181 5.9 -11.3°
